Location: Buch
(49.7331°N, 12.1098°E)
Time: 00:41:07
(UTC+00:00)

ERS-1 Rocket - Pass Details

Date: 12 May 2021
Orbit: 754 x 757 km, 98.4° (Epoch: 18 June)

Event Time Altitude Azimuth Distance (km) Brightness Sun altitude
Exits shadow 21:30:09 19° 208° (SSW) 1,754 4.5 -18.5°
Maximum altitude 21:33:12 36° 264° (W) 1,190 4.1 -18.7°
Drops below altitude 10° 21:37:50 10° 330° (NNW) 2,294 6.7 -19.0°
Sets 21:40:20 0° 339° (NNW) 3,224 7.9 -19.2°
